Retour au catalogue

DELTA 1 DEB

ActifSSO
NORAD 21492·DEBRIS·🇺🇸 United States

Lancé Jun 12, 1975 depuis Vandenberg Space Force Base

Loading…

Prochains Passages (prochaines 24 heures)

TLE

FraisSource: Space-Track

Époque: Sep 14, 2026, 07:32 UTC

1 21492U 75052FM  26257.31415288  .00000037  00000-0  15913-3 0  9993
2 21492  99.8389  15.6897 0061595 353.2024  32.0180 13.33796298720618

Suivez DELTA 1 DEB en temps réel avec AllMySat

Download on the App Store